Showing default

ANIK G1, 39127

Orbit data source: Space-Track

ANIK G1, 39127 is a payload satellite owned by Telesat (Loral) (CA) in GEO that was launched on Mon, 15 Apr 2013 UTC via a PROTON-M/BRIZ-M launch vehicle from the Tyuratam Missile And Space Complex (TTMTR). Payloads include a variety of satellites, spacecraft, and rockets equipped with specific instruments for various scientific and technological missions. These include communications satellites like Starlink; space stations such as the ISS; scientific satellites like the Hubble; Earth observation satellites from companies like Planet Labs, Umbra, and HawkEye 360; GPS; miniature CubeSats for education and research; and military/defense satellites.

Loading next visibility...
ANIK G1 details
Identifier
39127, 2013-014A
Orbit
GEO
Last TLE update22 hours ago
Origin
Flag of CATelesat (Loral) (CA)
ManufacturerSS/Loral (MDA)
MissionOperational Commercial Communications
Bus & MotorSSL-1300, R-4D-15?
Mass4,905 kg wet, ~2,500 kg dry
Launch date (UTC)
2013-04-15 (12 years ago)
Launch vehicle
PROTON-M/BRIZ-M
Launch site
Tyuratam Missile And Space Complex (TTMTR)
Object type
Payload
Rocket body
Debris
Shape & HBRBox + 2 Pan, 30 m
Radar Cross Section50.206 m², Large (>1 m²)

Expand to show TLE details & history

TLE from 22 hours ago
0 ANIK G1
1 39127U 13014A   24360.48938084 -.00000047  00000-0  00000-0 0  9992
2 39127   0.0200 293.1699 0003434 345.2728 244.9149  1.00271941 42857
Epoch: 2024-12-25T11:44Z
Definitive object data (Epoch: 2024-12-25T11:44:42.504Z)
Latitude-0.01289°
Longitude-107.34437°
Altitude35,792.193 km
Speed3.074 km/s
True Right ascension10h 53m 15s
True Declination0° 00' 46"
Sunlit
Object was in daylight at TLE epoch
Visualization TLE readout
Latitude-0.00043°
Longitude-129.10837°
Altitude35,796.635 km
Speed3.074 km/s
Apparent Right ascension09h 25m 02s
Apparent Declination-6° 13' 56"
Sunlit
Object is in daylight
Visualization observer readout
Local Sidereal Time09:35:04
Azimuth183.456° SSW
Elevation43.794°
Doppler factor1
Orbital elements
Apogee altitude35,802.101 km
Perigee altitude35,773.142 km
Semi-major axis42,165.759 km
Eccentricity0.0003434
Inclination0.02°
RAAN293.1699°
Arg. of periapsis345.2728°
True anomaly244.87927°
Mean anomaly244.9149°
Eccentric anomaly244.89708°
Mean motion0.25067 °/min
BSTARUnknown
Orbital period1436.15 mins
Loading historical data...
39127 neighbors
Authenticating...
Loading maneuver chart data...
Loading historical data...
Loading historical data...
Loading historical data...
Loading historical data...
Loading historical data...
Loading historical data...
Loading historical data...
Other satellites on launch #14 in the year 2013 (2013-04-15 UTC)

ANIK G1 Visibility forecast

Observer location: undefined°, undefined

Span
Click to sort rows by Start time (UTC) header in descending order
Start Az.
Max El. time (UTC)
Max El. Az.
Max El.
End time (UTC)
End Az.
1440 mins2024-12-26 10:13:55.446Z183.455° SSW2024-12-27 05:09:55.446Z183.381° SSW34.694°2024-12-27 10:13:55.446Z183.455° SSW
|